TimeCDT,TemperatureF,Dew PointF,Humidity,Sea Level PressureIn,VisibilityMPH,Wind Direction,Wind SpeedMPH,Gust SpeedMPH,PrecipitationIn,Events,Conditions,WindDirDegrees,DateUTC
12:53 AM,48.0,30.9,52,30.01,10.0,SW,5.8,-,N/A,,Partly Cloudy,220,2012-11-01 05:53:00
1:53 AM,46.0,30.9,56,30.00,10.0,SW,5.8,-,N/A,,Clear,220,2012-11-01 06:53:00
2:53 AM,44.1,30.9,60,30.00,10.0,SW,9.2,-,N/A,,Partly Cloudy,220,2012-11-01 07:53:00
3:53 AM,45.0,32.0,60,29.99,10.0,SSW,5.8,-,N/A,,Mostly Cloudy,210,2012-11-01 08:53:00
4:53 AM,42.8,33.8,70,29.98,10.0,SSW,8.1,-,N/A,,Mostly Cloudy,200,2012-11-01 09:53:00
5:53 AM,44.6,32.0,61,29.99,10.0,WSW,5.8,-,N/A,,Partly Cloudy,240,2012-11-01 10:53:00
6:53 AM,41.0,32.0,70,29.98,10.0,SSW,6.9,-,N/A,,Partly Cloudy,200,2012-11-01 11:53:00
7:53 AM,42.1,32.0,67,29.99,10.0,SSW,5.8,-,N/A,,Partly Cloudy,210,2012-11-01 12:53:00
8:53 AM,48.0,35.1,61,29.99,10.0,SW,6.9,-,N/A,,Scattered Clouds,220,2012-11-01 13:53:00
9:53 AM,54.0,36.0,51,29.99,10.0,WSW,5.8,-,N/A,,Scattered Clouds,240,2012-11-01 14:53:00
10:53 AM,60.1,36.0,41,29.97,10.0,WSW,9.2,-,N/A,,Scattered Clouds,240,2012-11-01 15:53:00
11:53 AM,66.0,37.0,34,29.95,10.0,SW,12.7,-,N/A,,Scattered Clouds,220,2012-11-01 16:53:00
12:53 PM,69.1,37.9,32,29.91,10.0,SW,15.0,20.7,N/A,,Partly Cloudy,220,2012-11-01 17:53:00
1:53 PM,71.6,37.4,29,29.90,10.0,West,18.4,25.3,N/A,,Partly Cloudy,280,2012-11-01 18:53:00
2:53 PM,72.0,39.0,30,29.88,10.0,West,17.3,23.0,N/A,,Mostly Cloudy,280,2012-11-01 19:53:00
3:53 PM,68.0,39.9,36,29.89,9.0,WNW,13.8,21.9,N/A,,Mostly Cloudy,300,2012-11-01 20:53:00
4:53 PM,66.9,41.0,39,29.90,10.0,NW,13.8,-,N/A,,Scattered Clouds,320,2012-11-01 21:53:00
5:53 PM,62.1,39.9,44,29.91,10.0,NW,5.8,-,N/A,,Scattered Clouds,310,2012-11-01 22:53:00
6:53 PM,60.1,39.9,47,29.92,10.0,WNW,4.6,-,N/A,,Scattered Clouds,300,2012-11-01 23:53:00
7:53 PM,59.0,39.9,49,29.93,10.0,West,4.6,-,N/A,,Scattered Clouds,280,2012-11-02 00:53:00
8:53 PM,57.9,39.9,51,29.94,10.0,NNW,4.6,-,N/A,,Mostly Cloudy,340,2012-11-02 01:53:00
9:53 PM,53.1,39.0,59,29.94,10.0,NNE,5.8,-,N/A,,Overcast,30,2012-11-02 02:53:00
10:53 PM,53.1,39.9,61,29.95,10.0,NNE,9.2,-,N/A,,Overcast,30,2012-11-02 03:53:00
11:53 PM,48.9,39.0,69,29.95,10.0,NE,6.9,-,N/A,,Mostly Cloudy,50,2012-11-02 04:53:00